This is the latest recevied weather packets stored in our database for station/object N8QYG-1. If no packets are shown the sender has not sent any weather packets the latest 1 day(s).
| Time | Temp. | Humidity | Pressure | Rain* | Wind** | Luminosity | Snow |
|---|---|---|---|---|---|---|---|
| 1778004021 | 11.67° C | 7% | - | 0 mm | 0.89 m/s, 243° | - | - |
| 1778003419 | 11.67° C | 7% | - | 0 mm | 2.24 m/s, 271° | - | - |
| 1778002818 | 11.67° C | 7% | - | 0 mm | 0.45 m/s, 215° | - | - |
| 1778002218 | 11.11° C | 7% | - | 0 mm | 1.34 m/s, 261° | - | - |
| 1778001618 | 11.11° C | 7% | - | 0 mm | 2.24 m/s, 259° | - | - |
| 1778001019 | 11.11° C | 7% | - | 0 mm | 1.79 m/s, 249° | - | - |
| 1778000418 | 11.11° C | 7% | - | 0 mm | 1.34 m/s, 259° | - | - |
| 1777999819 | 11.11° C | 7% | - | 0 mm | 1.34 m/s, 298° | - | - |
| 1777999219 | 11.11° C | 7% | - | 0 mm | 0.89 m/s, 292° | - | - |
| 1777998619 | 11.67° C | 7% | - | 0 mm | 3.13 m/s, 259° | - | - |
| 1777998018 | 11.67° C | 7% | - | 0 mm | 2.68 m/s, 268° | - | - |
| 1777997419 | 12.78° C | 6% | - | 0 mm | 2.68 m/s, 286° | - | - |
| 1777996818 | 12.78° C | 6% | - | 0 mm | 0.89 m/s, 284° | - | - |
| 1777996218 | 13.33° C | 6% | - | 0 mm | 4.47 m/s, 261° | - | - |
| 1777995618 | 13.89° C | 6% | - | 0 mm | 1.34 m/s, 250° | - | - |
| 1777995021 | 13.89° C | 6% | - | 0 mm | 2.24 m/s, 324° | - | - |
| 1777994419 | 13.89° C | 5% | - | 0 mm | 2.68 m/s, 288° | - | - |
| 1777993818 | 14.44° C | 5% | - | 0 mm | 2.68 m/s, 267° | - | - |
| 1777993218 | 14.44° C | 5% | - | 0 mm | 1.34 m/s, 328° | - | - |
| 1777992618 | 15° C | 5% | - | 0 mm | 4.02 m/s, 290° | - | - |
| 1777992019 | 15° C | 5% | - | 0 mm | 4.47 m/s, 301° | - | - |
| 1777991419 | 15.56° C | 5% | - | 0 mm | 2.68 m/s, 325° | - | - |
| 1777990818 | 15.56° C | 5% | - | 0 mm | 3.58 m/s, 288° | - | - |
| 1777990219 | 15.56° C | 5% | - | 0 mm | 2.68 m/s, 294° | - | - |
| 1777989619 | 15.56° C | 6% | - | 0 mm | 3.58 m/s, 251° | - | - |
* Rain latest hour (hover to see other rain measurements)
** Current wind speed in m/s (hover to see current wind gust speed)